Weather Roundup
Issued by NWS Springfield, MO

Home | Current Version | Previous Version | Text Only | Print | Product List | Glossary On
Versions: 1 2 3 4 5 6 7 8 9 10 11 12 13 14 15 16 17 18 19 20 21 22 23 24 25 26 27 28 29 30 31 32 33 34 35 36 37 38 39 40 41 42 43 44 45 46 47 48 49 50
000
NZUS99 KSGF 242007
HRRSGF

HOURLY WEATHER
NATIONAL WEATHER SERVICE SPRINGFIELD MO
300 PM CDT SUN JUL 24 2016

......SGF CWA......

CITY           SKY/WX    TMP DP  RH WIND       PRES   REMARKS
SPRINGFIELD    MOSUNNY   97  70  41 VRB7      29.97F HX 103
JOPLIN         SUNNY     96  74  48 SW8       29.95F HX 107
WEST PLAINS    LGT RAIN  86  75  69 SE8       30.01S HX  95
ROLLA          SUNNY     94  75  54 SW10      29.95F HX 105
OSAGE BEACH    SUNNY     95  77  55 VRB5      29.95F HX 109
BRANSON        PTSUNNY   93  72  49 N7        29.99F HX 100

......SURROUNDING SGF CWA......

CITY           SKY/WX    TMP DP  RH WIND       PRES   REMARKS
CHANUTE        SUNNY     96  75  50 S9        29.94F HX 108
PARSONS        SUNNY     99  73  43 W5        29.95F HX 109
COFFEYVILLE    SUNNY    100  71  39 S8        29.93F HX 108
EMPORIA        CLOUDY    95  69  42 W6        29.93F HX 100
GROVE OK       SUNNY     97  75  49 S3        29.96F HX 109
ROGERS AR      MOSUNNY   93  75  55 NW6       30.00F HX 104
SILOAM SPRINGS MOSUNNY   93  70  46 CALM      30.00F HX  99
HARRISON AR    MOSUNNY   95  74  50 CALM      29.99F HX 105
NEAR YELLVILLE PTSUNNY   93  75  55 CALM      29.93F HX 104

......KANSAS AND MISSOURI......

CITY           SKY/WX    TMP DP  RH WIND       PRES   REMARKS
KANSAS CTY INT PTSUNNY   90  77  65 S6        29.94S HX 103
DOWNTOWN KC    PTSUNNY   94  73  50 NW5       29.91F HX 103
COLUMBIA       CLOUDY    93  78  61 SW6       29.93F HX 108
SEDALIA        SUNNY     96  76  52 S8        29.94F HX 109
ST JOSEPH      CLOUDY    86  78  77 NW6       29.93S HX  98
ST LOUIS       MOSUNNY   99  73  43 SW6       29.92F HX 109
SPIRIT OF STL  SUNNY     97  77  52 SW9       29.90F HX 112
KIRKSVILLE     PTSUNNY   89  74  60 W5        29.93R HX  98
WICHITA        CLOUDY    98  68  37 SE9       29.91F HX 103
TOPEKA         CLOUDY    91  73  55 N3        29.94R HX  99
OLATHE         MOSUNNY   92  74  55 SW5       29.94F HX 101

......TENNESSEE......

CITY           SKY/WX    TMP DP  RH WIND       PRES   REMARKS
MEMPHIS        PTSUNNY   90  76  63 VRB7      29.98F HX 101
NASHVILLE      CLOUDY    94  70  45 SW3       30.00F HX 100

......ARKANSAS.......

CITY           SKY/WX    TMP DP  RH WIND       PRES   REMARKS
FAYETTEVILLE   PTSUNNY   94  75  54 N3        29.98F HX 105
FT SMITH       SUNNY     98  70  40 VRB3      29.92F HX 105
LITTLE ROCK    PTSUNNY   94  75  54 S7        29.94F HX 105

......OKLAHOMA.......

CITY           SKY/WX    TMP DP  RH WIND       PRES   REMARKS
TULSA          MOSUNNY   98  71  41 S10       29.90F HX 106
PONCA CITY     SUNNY    101  67  32 S10G25    29.91S HX 106
MCALESTER      SUNNY     98  72  42 VRB5      29.94F HX 107
OKLAHOMA CITY  MOSUNNY   99  66  33 S13       29.94F HX 103

......IOWA............

CITY           SKY/WX    TMP DP  RH WIND       PRES   REMARKS
DES MOINES     CLOUDY    87  64  46 N14       29.93S
QUAD CITIES    CLOUDY    90  78  68 W10       29.86S HX 104

......ILLINOIS........

CITY           SKY/WX    TMP DP  RH WIND       PRES   REMARKS
QUINCY         CLOUDY    95  78  58 SW10      29.89F HX 111
CHICAGO        PTSUNNY   92  77  61 SW17G23   29.84F HX 105




USA.gov is the U.S. government's official web portal to all federal, state and local government web resources and services.